Temp
-15 -15 -15 -15 -15 -15 -15 -15 -15 -15 -15 -15 -15 -15 -15 -15 -15 -15 -15 -15 -15 -15 -15 -15 -15 -15 -15 -15 -15 -15 -15 -15 -16 -16 -16 -17 -17 -17 -17 -17 -16 -16
-15 -15 -15 -15 -15 -15 -15 -15 -15 -15 -15 -15 -15 -15 -15 -15 -15 -15 -15 -15 -15 -15 -15 -15 -15 -15 -15 -16 -16 -16 -16 -16 -16 -16 -17 -17 -17 -17 -17 -17 -16 -16
-15 -15 -15 -15 -15 -15 -15 -15 -15 -15 -15 -15 -15 -16 -16 -16 -16 -16 -16 -16 -16 -16 -16 -16 -16 -16 -16 -16 -16 -16 -16 -16 -17 -17 -17 -17 -17 -17 -17 -16 -16 -16
-15 -15 -15 -15 -15 -15 -15 -15 -15 -15 -15 -16 -16 -16 -16 -16 -16 -16 -16 -16 -16 -16 -16 -16 -16 -16 -16 -16 -16 -16 -17 -17 -17 -17 -17 -17 -17 -17 -16 -16 -16 -16
-16 -16 -16 -16 -16 -16 -15 -15 -16 -16 -16 -16 -16 -16 -16 -16 -16 -16 -16 -16 -16 -16 -16 -16 -16 -16 -16 -17 -17 -17 -17 -17 -17 -17 -17 -17 -17 -17 -16 -16 -16 -16
-16 -16 -16 -16 -16 -16 -16 -16 -16 -16 -16 -16 -16 -16 -16 -16 -16 -16 -16 -16 -16 -16 -16 -16 -16 -16 -17 -17 -17 -17 -17 -17 -17 -17 -17 -17 -17 -17 -17 -16 -16 -16
-16 -16 -16 -16 -16 -16 -16 -16 -16 -16 -16 -16 -16 -16 -16 -16 -16 -16 -16 -16 -16 -16 -16 -16 -16 -17 -17 -17 -17 -17 -17 -17 -17 -17 -17 -17 -17 -17 -17 -17 -17 -17
-16 -16 -16 -16 -16 -16 -16 -16 -16 -16 -16 -16 -16 -16 -16 -16 -16 -16 -16 -16 -16 -16 -16 -16 -17 -17 -17 -17 -17 -17 -17 -17 -17 -17 -17 -17 -17 -17 -17 -17 -17 -17
-16 -16 -16 -16 -16 -16 -16 -16 -16 -16 -16 -16 -16 -16 -16 -16 -16 -16 -16 -16 -16 -16 -16 -16 -17 -17 -17 -17 -17 -17 -17 -17 -17 -17 -17 -17 -17 -17 -17 -17 -17 -17
-16 -17 -16 -16 -16 -16 -16 -16 -16 -16 -16 -16 -16 -16 -16 -16 -16 -16 -16 -16 -16 -16 -16 -16 -17 -17 -17 -17 -17 -17 -17 -17 -17 -17 -17 -17 -17 -17 -17 -17 -17 -17
-17 -17 -16 -16 -16 -16 -16 -16 -16 -16 -16 -16 -16 -16 -16 -16 -16 -16 -16 -16 -16 -16 -16 -16 -16 -17 -17 -17 -17 -17 -17 -17 -17 -17 -17 -17 -17 -17 -17 -17 -17 -17
-17 -17 -16 -16 -16 -16 -16 -16 -16 -16 -16 -16 -16 -16 -16 -16 -16 -16 -16 -16 -16 -16 -16 -16 -17 -17 -17 -17 -17 -17 -17 -17 -17 -17 -17 -17 -18 -18 -17 -17 -17 -17
-17 -17 -16 -16 -16 -16 -16 -16 -16 -16 -16 -16 -16 -16 -16 -16 -16 -16 -16 -16 -16 -16 -16 -16 -17 -17 -17 -17 -17 -17 -17 -17 -17 -17 -17 -17 -18 -18 -18 -17 -17 -17
-16 -16 -16 -16 -16 -16 -16 -16 -16 -16 -16 -16 -16 -16 -16 -16 -16 -16 -16 -16 -16 -16 -17 -17 -17 -17 -17 -17 -17 -17 -17 -17 -17 -17 -17 -17 -18 -18 -18 -18 -17 -17
-16 -16 -16 -16 -16 -16 -17 -17 -17 -16 -16 -16 -16 -16 -16 -16 -16 -16 -16 -16 -16 -17 -17 -17 -17 -17 -17 -17 -17 -17 -17 -17 -17 -17 -17 -17 -18 -18 -18 -18 -18 -18
-16 -16 -16 -16 -16 -17 -17 -16 -17 -16 -16 -16 -16 -16 -16 -16 -16 -16 -16 -16 -17 -17 -17 -17 -17 -17 -17 -17 -17 -17 -17 -17 -17 -17 -17 -17 -17 -17 -18 -18 -18 -18
-16 -16 -16 -16 -16 -16 -16 -16 -16 -16 -16 -16 -16 -16 -16 -16 -16 -16 -16 -16 -17 -17 -17 -17 -17 -17 -18 -17 -17 -17 -17 -17 -17 -17 -17 -17 -17 -17 -18 -18 -18 -18
-16 -16 -16 -16 -16 -16 -16 -16 -16 -16 -16 -16 -16 -16 -16 -16 -16 -16 -16 -17 -17 -17 -17 -17 -17 -17 -18 -17 -17 -17 -17 -17 -17 -17 -17 -17 -17 -17 -18 -17 -17 -17
-16 -16 -16 -16 -16 -16 -16 -16 -16 -16 -16 -16 -16 -16 -16 -16 -16 -16 -17 -17 -17 -17 -17 -17 -17 -17 -18 -18 -17 -17 -17 -17 -17 -17 -17 -17 -17 -17 -17 -17 -17 -17
-16 -16 -16 -16 -16 -16 -16 -16 -16 -16 -16 -16 -16 -16 -16 -16 -16 -17 -17 -17 -17 -17 -17 -17 -17 -17 -18 -18 -17 -17 -17 -17 -17 -17 -17 -17 -17 -17 -17 -17 -17 -17
-16 -16 -16 -16 -16 -16 -16 -16 -16 -16 -16 -16 -16 -16 -16 -16 -16 -17 -17 -16 -17 -17 -17 -17 -17 -17 -17 -17 -17 -17 -17 -17 -17 -17 -17 -17 -17 -17 -17 -17 -17 -17
-16 -16 -16 -16 -16 -16 -16 -16 -16 -16 -16 -16 -16 -16 -16 -16 -17 -17 -17 -16 -17 -17 -17 -17 -17 -17 -17 -17 -17 -17 -17 -17 -17 -17 -17 -17 -17 -17 -17 -17 -17 -17
-16 -16 -16 -16 -16 -16 -16 -16 -16 -16 -16 -16 -16 -16 -16 -16 -17 -17 -17 -17 -17 -17 -17 -17 -17 -17 -17 -17 -17 -17 -17 -17 -17 -17 -17 -17 -17 -17 -17 -17 -17 -17
-16 -16 -16 -16 -16 -16 -17 -17 -16 -16 -16 -16 -16 -16 -16 -16 -17 -17 -17 -17 -17 -17 -17 -17 -17 -17 -17 -17 -17 -17 -17 -17 -17 -17 -17 -17 -17 -17 -17 -17 -17 -17
-16 -16 -16 -16 -16 -17 -17 -17 -16 -16 -16 -17 -17 -17 -17 -17 -17 -17 -17 -17 -17 -17 -17 -17 -17 -17 -17 -17 -17 -17 -17 -17 -17 -17 -17 -17 -17 -17 -17 -17 -17 -17
-16 -16 -16 -16 -16 -17 -17 -17 -16 -17 -17 -17 -17 -17 -17 -17 -17 -17 -17 -17 -17 -17 -17 -17 -17 -17 -17 -17 -17 -17 -17 -17 -17 -17 -17 -17 -17 -17 -17 -17 -17 -17
Height
5799 5799 5799 5798 5798 5797 5796 5795 5794 5794 5793 5792 5791 5790 5789 5788 5787 5786 5785 5784 5783 5782 5781 5780 5779 5778 5777 5776 5774 5773 5772 5771 5769 5768 5768 5767 5767 5766 5766 5765 5764 5763
5798 5797 5797 5796 5795 5795 5794 5793 5792 5791 5791 5790 5789 5788 5787 5786 5785 5784 5783 5781 5780 5779 5778 5777 5776 5775 5774 5773 5772 5770 5769 5767 5766 5766 5765 5765 5765 5764 5764 5763 5762 5761
5796 5795 5795 5794 5793 5792 5792 5791 5790 5789 5789 5788 5787 5786 5785 5784 5783 5781 5780 5779 5778 5776 5775 5774 5773 5772 5771 5770 5769 5767 5766 5765 5764 5764 5763 5763 5763 5762 5762 5761 5760 5758
5794 5793 5792 5791 5790 5790 5789 5789 5788 5787 5786 5786 5785 5784 5783 5782 5780 5779 5778 5776 5775 5774 5773 5772 5771 5770 5769 5767 5766 5764 5763 5763 5762 5762 5762 5761 5761 5760 5759 5758 5757 5755
5792 5791 5790 5789 5788 5788 5787 5786 5786 5785 5784 5784 5783 5782 5781 5779 5778 5777 5775 5774 5773 5772 5771 5770 5769 5767 5766 5765 5763 5762 5762 5761 5761 5760 5760 5759 5759 5758 5757 5755 5754 5753
5790 5789 5788 5787 5786 5786 5785 5784 5783 5782 5782 5781 5780 5779 5778 5777 5775 5774 5773 5772 5770 5769 5769 5768 5766 5765 5764 5762 5762 5761 5760 5760 5759 5759 5758 5758 5757 5756 5755 5753 5752 5751
5787 5786 5785 5785 5785 5785 5783 5782 5781 5780 5779 5778 5778 5777 5776 5774 5772 5771 5770 5769 5768 5767 5766 5765 5764 5763 5761 5760 5760 5759 5759 5759 5758 5757 5757 5756 5755 5754 5753 5752 5751 5750
5784 5784 5784 5785 5784 5782 5781 5779 5778 5777 5776 5776 5775 5775 5773 5771 5769 5768 5767 5767 5766 5765 5764 5763 5762 5760 5759 5759 5758 5758 5758 5757 5757 5756 5755 5754 5753 5752 5751 5750 5750 5749
5782 5783 5784 5782 5780 5779 5778 5777 5775 5774 5774 5774 5773 5772 5771 5769 5767 5765 5765 5764 5764 5763 5762 5761 5760 5758 5758 5757 5757 5757 5756 5756 5755 5755 5754 5753 5752 5751 5750 5749 5749 5749
5781 5782 5781 5778 5776 5776 5776 5775 5773 5773 5772 5772 5771 5770 5769 5767 5765 5763 5763 5762 5762 5761 5760 5759 5758 5757 5756 5756 5756 5756 5755 5754 5754 5753 5752 5751 5750 5749 5749 5748 5748 5748
5779 5779 5777 5775 5774 5774 5773 5772 5772 5771 5771 5770 5769 5768 5766 5765 5763 5762 5761 5760 5760 5759 5758 5757 5756 5755 5755 5754 5754 5754 5754 5753 5753 5752 5751 5750 5749 5749 5748 5748 5748 5748
5776 5775 5774 5773 5773 5772 5771 5770 5770 5769 5768 5767 5766 5765 5764 5762 5761 5760 5759 5759 5758 5757 5756 5756 5755 5754 5753 5753 5753 5753 5752 5752 5751 5751 5750 5749 5748 5748 5747 5747 5748 5748
5774 5772 5771 5771 5770 5769 5768 5768 5767 5767 5766 5765 5764 5763 5762 5760 5759 5758 5757 5757 5756 5756 5755 5754 5753 5753 5752 5752 5752 5752 5751 5751 5750 5750 5749 5748 5748 5747 5747 5747 5747 5748
5771 5770 5769 5769 5768 5767 5766 5765 5765 5764 5763 5762 5761 5760 5759 5758 5757 5756 5756 5755 5755 5754 5753 5752 5752 5751 5751 5751 5751 5751 5750 5750 5749 5749 5748 5747 5747 5747 5747 5747 5748 5748
5769 5767 5766 5766 5765 5764 5763 5763 5762 5762 5761 5759 5759 5758 5757 5756 5755 5754 5754 5753 5753 5752 5751 5750 5750 5750 5750 5750 5750 5750 5749 5749 5748 5748 5747 5747 5746 5746 5746 5747 5748 5748
5766 5765 5764 5763 5762 5761 5761 5760 5760 5760 5758 5757 5756 5756 5755 5754 5753 5753 5752 5752 5752 5751 5750 5749 5748 5748 5748 5749 5749 5749 5749 5748 5748 5747 5746 5746 5746 5746 5746 5747 5748 5749
5763 5762 5761 5760 5759 5759 5758 5758 5757 5757 5755 5754 5754 5754 5753 5753 5752 5751 5751 5751 5750 5749 5748 5748 5747 5747 5747 5747 5747 5748 5748 5747 5747 5746 5746 5745 5745 5746 5747 5748 5748 5749
5760 5759 5758 5758 5757 5756 5755 5755 5754 5753 5752 5752 5752 5752 5752 5751 5751 5750 5750 5749 5749 5748 5747 5746 5746 5745 5745 5746 5746 5746 5747 5746 5746 5745 5745 5745 5745 5746 5747 5748 5748 5749
5758 5757 5756 5756 5755 5754 5753 5752 5751 5751 5750 5750 5750 5750 5750 5750 5750 5749 5748 5748 5747 5746 5746 5745 5745 5744 5744 5744 5745 5745 5745 5745 5745 5745 5745 5745 5745 5746 5747 5747 5748 5748
5755 5755 5754 5753 5752 5751 5751 5750 5749 5748 5748 5748 5748 5748 5748 5748 5748 5747 5746 5746 5745 5745 5744 5744 5743 5743 5743 5743 5743 5744 5744 5744 5744 5744 5744 5744 5744 5745 5746 5747 5748 5748
5753 5752 5751 5750 5750 5749 5748 5747 5747 5747 5747 5746 5746 5746 5746 5746 5746 5745 5744 5744 5743 5743 5742 5742 5742 5741 5741 5741 5742 5742 5743 5743 5743 5743 5743 5743 5744 5744 5745 5746 5747 5747
5750 5750 5749 5748 5747 5746 5746 5745 5745 5745 5745 5744 5744 5743 5744 5744 5743 5743 5742 5742 5742 5741 5741 5740 5740 5740 5740 5740 5740 5741 5741 5741 5741 5742 5742 5742 5743 5743 5744 5745 5746 5747
5747 5747 5746 5745 5744 5744 5743 5744 5744 5743 5742 5742 5742 5742 5741 5741 5741 5741 5740 5740 5740 5739 5739 5739 5738 5738 5738 5738 5739 5739 5739 5740 5740 5740 5740 5741 5742 5742 5743 5744 5745 5745
5744 5743 5742 5741 5741 5740 5740 5740 5740 5740 5740 5740 5739 5739 5739 5739 5738 5738 5737 5737 5737 5737 5737 5737 5737 5736 5737 5737 5737 5737 5737 5738 5738 5738 5739 5739 5740 5741 5742 5742 5743 5744
5740 5739 5739 5737 5736 5737 5738 5737 5736 5736 5736 5736 5736 5735 5735 5736 5735 5735 5735 5734 5735 5735 5735 5735 5735 5735 5735 5735 5735 5735 5736 5736 5736 5736 5737 5737 5738 5739 5740 5741 5741 5742
5735 5735 5735 5733 5732 5733 5734 5734 5732 5732 5731 5732 5732 5731 5732 5732 5732 5732 5732 5732 5732 5732 5732 5733 5733 5732 5732 5732 5733 5733 5734 5734 5734 5734 5735 5735 5736 5737 5738 5739 5739 5740
Wind_Speed
17 17 18 18 18 18 19 20 21 21 20 20 20 20 20 20 20 20 21 21 22 22 22 22 22 22 22 23 24 25 27 27 26 25 22 20 18 18 18 19 20 21
19 20 21 21 20 20 20 20 20 20 20 20 19 19 19 20 20 20 21 21 21 21 21 21 21 21 22 23 24 26 26 24 22 20 18 16 16 17 17 18 19 21
21 22 22 22 22 21 21 20 20 19 19 19 18 18 19 20 20 21 21 22 22 21 21 21 21 21 22 23 25 25 23 20 17 16 15 15 16 17 17 18 20 21
23 23 22 22 22 22 22 20 19 19 20 19 18 18 19 20 21 22 22 22 22 21 21 21 21 21 22 23 24 22 18 15 14 14 14 15 16 17 18 19 20 20
23 23 23 23 23 23 22 20 19 19 20 19 18 18 19 20 21 22 22 22 22 21 20 20 20 21 22 23 21 18 14 12 12 13 14 16 17 18 19 20 19 16
22 23 23 23 22 22 21 20 20 20 20 18 17 18 19 21 22 23 23 23 22 21 20 19 19 20 21 21 18 14 12 11 12 14 15 16 17 18 19 18 15 13
21 22 21 21 20 20 21 21 20 20 20 19 18 18 20 22 24 24 23 22 21 20 19 19 19 20 20 18 14 12 11 11 12 14 15 16 18 18 18 15 12 10
20 20 19 19 20 21 21 21 19 19 20 19 19 20 21 23 24 24 22 21 20 19 18 18 19 20 19 15 11 10 10 11 12 14 15 17 18 18 15 12 10 9
20 19 18 20 22 23 22 21 20 20 20 20 21 22 23 23 24 24 22 21 20 19 18 18 19 19 16 12 10 10 10 11 12 14 15 17 17 16 13 10 8 7
20 18 18 19 21 23 23 22 20 20 20 21 24 25 24 23 24 24 22 21 20 19 19 19 18 16 13 10 9 9 9 11 12 14 15 16 16 14 11 8 6 6
20 19 19 20 20 21 22 21 20 19 20 22 24 25 23 22 23 23 22 21 20 19 19 19 16 13 11 9 8 8 8 10 12 14 15 15 14 12 9 6 5 3
20 20 20 20 20 20 20 20 20 21 21 22 23 22 21 21 22 23 22 21 20 19 19 17 14 10 9 9 8 8 8 10 11 13 13 13 12 10 6 4 2 2
21 22 20 19 19 20 20 20 21 22 21 20 20 19 19 21 22 22 22 21 20 19 18 15 11 9 8 9 8 8 8 9 11 12 12 11 10 7 4 2 4 6
22 22 21 20 19 19 20 20 21 21 19 18 17 18 18 20 22 22 22 20 20 19 16 12 9 8 8 8 8 8 8 9 10 11 10 9 8 5 2 4 7 8
23 24 23 22 19 18 18 19 20 20 18 16 16 17 18 20 21 22 21 20 19 17 14 11 8 7 8 8 8 8 8 9 10 10 8 7 6 2 4 8 9 8
25 25 24 23 21 18 17 18 19 18 16 15 16 17 19 20 20 21 21 19 18 16 13 10 8 7 7 8 8 8 9 9 10 9 6 5 3 3 8 10 9 8
25 24 23 22 21 18 17 17 17 16 15 14 15 17 18 19 19 20 20 18 16 14 11 10 8 7 7 8 8 8 9 9 9 8 5 3 2 7 10 10 9 8
23 21 21 20 19 17 16 16 16 16 15 14 15 15 17 17 17 17 17 16 14 12 10 9 8 8 8 8 8 8 9 9 9 7 4 3 5 9 11 10 9 8
20 19 19 19 18 16 15 15 15 16 16 14 13 14 15 14 14 13 13 13 12 11 9 9 8 8 8 8 8 9 9 9 9 7 5 4 7 11 11 10 9 8
18 18 18 18 18 18 17 16 16 15 15 14 12 13 13 12 11 11 10 10 10 9 8 8 8 9 9 9 9 9 9 10 10 8 7 7 9 12 12 11 10 9
20 20 19 19 19 20 19 18 18 17 15 13 12 13 13 12 11 10 8 8 8 7 7 7 8 9 10 10 10 10 10 10 10 9 8 9 11 13 13 12 11 10
23 23 23 23 22 22 22 20 20 18 16 15 14 14 15 14 13 11 9 7 6 6 6 7 8 9 10 11 11 10 10 11 11 10 10 10 12 14 14 13 13 12
25 24 24 24 24 24 23 21 20 21 20 17 15 16 17 17 16 14 12 9 7 6 6 7 8 9 10 12 12 12 11 11 11 11 11 12 13 15 16 15 14 14
27 26 25 24 24 23 22 21 21 23 22 20 18 18 19 20 20 19 18 17 16 13 10 10 9 10 11 12 14 13 12 12 12 12 12 13 14 16 17 17 16 16
27 27 26 26 25 23 21 22 23 23 23 22 22 22 22 22 23 24 24 23 22 21 20 17 13 12 12 13 14 15 13 13 13 14 14 14 15 17 18 18 18 17
27 25 25 26 26 25 23 23 23 24 24 24 24 24 23 22 23 23 23 21 20 22 23 21 17 14 13 14 15 15 15 14 14 15 15 15 16 17 19 19 19 19
Wind_Direction
276 280 283 284 285 285 285 286 286 286 286 286 286 285 284 283 284 285 286 286 285 285 285 285 286 287 289 291 294 298 300 301 300 298 297 295 293 291 292 293 294 294
277 280 283 284 285 284 284 285 285 285 286 286 286 285 285 286 287 288 288 288 287 287 288 288 290 291 294 297 300 303 304 303 302 300 298 296 295 295 296 296 296 297
280 282 283 284 284 284 284 285 284 283 284 285 284 284 285 287 288 289 288 288 288 289 290 291 294 296 300 303 306 307 306 305 303 300 298 298 299 299 299 299 299 301
285 285 285 286 286 287 287 287 284 283 285 286 284 284 286 287 289 289 288 287 287 289 290 293 296 299 303 306 308 308 306 305 302 299 299 301 303 302 302 303 305 306
288 288 289 290 291 292 292 290 286 284 286 289 289 290 291 292 292 292 290 287 286 286 289 294 299 302 305 308 309 307 304 301 300 300 303 305 305 305 306 308 309 308
289 289 289 291 294 297 296 294 291 290 291 294 297 299 301 301 300 298 293 289 286 287 292 298 301 305 308 309 307 303 300 299 301 303 305 306 305 308 311 311 309 306
286 285 287 292 297 301 301 298 295 295 296 299 301 305 310 309 306 303 297 292 289 291 296 301 304 307 308 306 303 298 296 298 302 304 305 305 307 312 315 313 307 302
283 286 294 300 300 301 302 298 293 291 294 298 301 305 311 310 307 305 302 297 294 295 299 303 306 307 305 303 298 292 293 298 302 304 304 305 311 317 318 312 303 297
290 301 311 308 300 297 298 295 289 286 290 295 297 302 308 307 305 306 306 303 300 299 301 304 306 304 302 298 290 286 291 298 302 303 304 308 314 319 318 310 299 294
299 308 307 301 298 298 296 291 286 287 293 295 295 298 302 303 302 305 307 306 303 301 302 305 304 300 296 290 281 281 290 299 301 302 305 311 317 321 319 309 297 293
304 303 297 295 299 300 296 290 287 290 296 298 296 297 298 300 303 305 305 304 302 301 303 305 301 294 288 281 275 278 289 296 299 301 306 313 319 323 318 305 295 285
298 298 297 299 300 299 297 293 291 293 298 299 298 297 298 302 304 304 304 303 301 302 303 303 297 286 279 275 272 277 288 294 296 301 307 315 321 324 316 295 269 206
294 294 296 298 298 298 296 295 296 298 299 299 297 296 299 302 302 301 302 301 300 301 302 299 290 278 271 270 271 277 286 291 295 300 307 316 323 322 301 247 190 170
293 294 294 294 294 294 295 296 298 299 297 294 294 296 298 298 298 298 299 299 299 300 299 293 284 271 265 266 270 278 286 290 293 298 306 317 323 315 249 189 173 165
291 292 293 292 292 294 297 297 296 296 295 293 293 295 295 294 295 296 297 297 298 299 296 288 276 263 260 263 269 278 284 287 290 295 305 317 319 284 189 175 169 166
289 290 289 290 292 294 294 291 289 292 296 297 296 294 292 292 293 294 295 297 298 297 292 284 270 255 255 261 269 278 282 284 287 291 301 314 305 194 175 171 169 171
288 288 287 288 291 293 290 284 282 287 293 297 296 293 291 292 293 294 296 299 300 296 289 280 264 250 251 258 266 274 278 280 283 285 291 298 227 177 173 174 176 180
285 285 284 286 289 291 291 287 284 285 289 292 291 289 289 291 293 295 299 305 303 296 288 280 262 245 245 253 262 270 273 274 277 276 270 249 193 178 178 182 185 188
281 281 281 281 283 285 286 287 286 286 287 289 288 285 285 287 289 292 301 308 306 297 289 281 265 246 240 246 257 264 266 268 270 265 250 221 194 186 187 191 193 195
279 280 279 275 274 277 279 281 281 281 283 285 284 278 276 276 278 282 294 304 303 296 289 282 268 250 239 241 251 258 260 262 263 256 238 217 201 194 195 200 201 202
274 274 274 272 271 271 273 274 275 276 279 280 276 266 260 260 261 264 276 292 295 292 288 283 273 256 241 236 243 252 255 256 257 252 234 217 207 203 203 207 209 210
275 274 274 273 272 271 270 270 273 275 274 272 268 260 250 247 250 253 261 276 289 294 294 287 276 261 245 236 237 245 250 251 252 249 236 220 212 209 209 212 216 217
275 275 275 274 272 271 271 271 271 272 269 267 267 263 253 247 246 244 247 259 272 290 305 301 284 268 251 239 234 238 244 246 246 246 239 227 218 214 213 216 220 222
271 270 271 271 269 268 270 269 267 267 268 268 269 265 258 251 244 241 251 265 268 271 285 296 290 275 258 243 235 234 238 241 242 243 240 232 224 219 217 218 222 225
266 265 265 266 267 268 270 270 267 264 264 267 270 268 262 257 253 254 264 271 268 265 271 279 282 277 265 249 238 234 235 237 238 239 239 235 229 224 221 220 222 225
260 260 262 264 268 270 269 267 266 265 262 262 265 267 266 263 261 263 269 273 269 267 270 271 269 269 266 254 242 236 234 235 236 238 238 236 232 228 225 223 224 225